Theta_e
321 324 325 324 323 322 320 319 320 322 324 324 323 326 327 324 324 325 323 319 317 318 321 319 317 318 316 318 318 313 311 312 311 312 312 310 309 308 308 308 307 305 303 302 302 303 303 303 305 306 308 309 308 309 309 308 308 308 307 307 306 305 305 308 309 309 310 310 309 307 306 302 300 302 303 302 303 303 302 303 303 302 301 300 299 297
319 323 324 325 322 319 320 319 318 319 320 320 321 322 324 324 324 324 321 318 318 319 324 323 319 319 318 319 320 314 311 312 312 312 312 311 309 309 308 308 307 304 302 301 301 302 303 303 304 305 306 307 307 308 309 308 308 307 308 307 306 305 306 309 311 311 310 310 310 307 303 299 298 299 300 299 298 299 299 299 299 298 297 296 294 293
321 322 321 320 320 319 321 320 318 319 319 321 323 320 323 327 325 324 322 318 318 319 326 328 323 321 320 319 320 317 313 312 311 311 312 311 309 308 308 308 307 304 303 302 301 302 302 302 303 304 306 307 307 308 308 308 307 307 307 307 306 306 306 308 311 312 310 307 307 305 301 299 297 295 297 296 295 296 296 295 294 293 293 292 292 292
325 327 322 317 319 320 321 321 320 320 320 323 323 321 325 328 324 325 325 319 318 319 323 325 322 319 318 319 320 318 314 313 312 312 313 313 310 308 308 308 306 304 303 302 302 301 302 302 302 303 304 305 306 306 306 307 307 307 307 307 306 306 306 306 308 309 308 304 303 301 298 298 296 292 292 292 291 292 291 291 291 291 291 291 292 292
324 327 323 319 319 321 321 321 321 321 322 327 327 324 326 327 324 325 325 321 323 325 322 320 323 325 323 321 320 318 314 314 314 314 316 315 311 310 309 307 305 304 302 302 303 302 301 301 302 302 303 304 305 305 305 306 307 307 306 306 306 306 305 306 306 307 305 302 299 297 294 293 292 290 290 290 289 290 290 290 290 290 291 291 291 291
320 321 322 323 321 321 322 322 325 326 323 326 329 327 323 324 326 326 326 325 329 334 327 322 329 336 335 327 324 320 315 315 315 314 315 315 312 311 310 308 306 304 302 302 302 301 300 301 301 302 302 303 304 304 304 305 306 306 305 305 305 305 304 305 305 305 304 301 298 295 292 290 290 289 289 289 289 289 289 290 290 290 291 291 291 291
321 320 321 324 324 325 323 322 327 327 323 325 329 330 326 324 324 324 325 325 332 335 326 323 331 334 331 327 327 325 319 317 315 313 314 313 312 310 308 307 306 304 303 302 302 301 300 300 301 301 301 302 303 303 303 304 304 305 305 304 304 304 304 303 302 302 302 298 295 292 291 290 290 289 289 289 289 289 289 289 290 290 290 290 290 290
322 321 322 324 326 327 324 324 327 325 325 329 328 331 331 325 325 326 326 327 333 333 325 324 329 328 326 325 324 324 323 320 315 313 312 311 310 309 308 307 305 304 302 302 302 301 300 300 300 300 301 302 302 302 302 302 302 303 303 303 303 303 301 299 298 297 298 295 292 291 291 290 290 289 289 288 289 289 289 289 289 289 289 289 290 290
322 323 325 325 324 326 325 327 330 324 325 330 326 330 333 329 330 330 328 329 329 328 326 326 326 327 330 329 323 320 321 321 317 314 311 309 309 308 307 307 305 304 302 302 302 300 299 300 300 300 300 300 301 301 301 301 300 301 301 300 300 299 297 296 295 294 294 293 291 291 291 290 289 289 288 288 288 289 289 289 289 289 289 289 289 289
325 322 323 326 324 326 328 329 330 326 323 325 325 329 333 332 332 331 329 329 327 327 328 327 326 327 331 330 324 319 320 322 319 315 312 309 308 307 307 306 305 303 302 302 300 299 299 300 299 299 299 299 300 300 301 301 300 299 298 298 297 296 296 296 295 294 293 292 292 291 291 290 289 288 288 288 288 288 289 289 289 289 289 289 289 289
321 316 318 324 324 324 326 323 323 325 323 324 328 332 333 332 332 333 330 327 327 328 328 328 326 326 330 332 328 322 322 323 319 318 315 310 309 307 306 306 304 303 302 302 300 298 299 298 298 298 299 298 299 299 300 300 300 299 298 297 297 296 297 297 296 295 293 292 292 291 290 290 289 288 288 288 288 288 289 289 289 289 289 289 289 288
319 318 320 322 320 322 326 321 320 324 322 325 332 332 331 331 332 331 326 324 328 329 328 327 324 323 328 334 330 322 321 322 320 321 320 313 309 307 306 305 303 302 301 301 300 298 296 295 296 297 297 298 298 298 298 299 299 299 298 297 297 296 297 296 296 295 293 292 291 291 290 290 289 289 289 289 289 289 289 289 288 289 289 288 288 288
322 324 324 320 318 322 327 324 323 324 322 325 330 330 328 328 330 331 326 325 327 327 323 322 323 323 324 327 326 322 320 320 321 320 319 315 309 306 306 304 303 302 301 300 299 297 295 294 295 295 296 296 297 297 297 298 298 298 297 297 297 296 296 296 295 294 293 291 291 290 290 290 289 289 290 290 290 290 290 289 289 289 289 288 288 287
326 326 323 320 319 321 324 323 323 324 323 323 325 328 329 328 330 333 330 327 328 327 322 318 322 325 325 325 323 321 320 321 322 320 318 315 309 306 305 304 303 302 301 300 298 297 295 294 294 294 295 295 296 296 296 296 297 297 297 297 296 295 294 294 294 293 292 291 290 290 290 290 290 290 290 290 290 290 290 290 289 289 288 288 288 287
327 328 325 321 321 322 321 321 325 325 322 321 322 326 328 330 335 335 332 330 331 330 322 316 322 328 330 327 321 318 318 319 320 317 314 311 308 306 305 303 303 301 300 299 297 296 295 294 294 294 294 295 295 296 296 295 296 296 296 296 295 294 293 293 293 292 291 291 290 290 290 290 290 290 290 290 290 290 290 289 289 289 288 288 288 287
323 329 329 321 320 322 320 321 324 324 321 321 324 326 326 330 333 331 329 326 324 326 322 319 325 329 327 323 318 316 315 315 317 314 311 310 307 306 305 303 302 301 299 298 297 296 294 293 294 294 294 294 295 295 295 294 294 295 295 295 294 293 293 292 292 291 291 291 291 290 290 290 290 290 290 290 289 289 289 289 289 288 288 288 288 288
325 329 325 317 319 320 319 322 322 323 325 322 322 324 323 326 328 328 328 322 320 326 326 322 326 325 321 320 319 315 313 313 314 312 310 309 307 305 304 303 302 301 299 298 297 296 294 293 293 293 294 294 294 295 294 294 294 294 294 294 293 293 292 292 292 291 291 291 291 291 290 290 290 290 290 290 289 289 289 288 288 288 288 288 288 287
328 328 322 318 321 318 316 322 322 321 323 323 323 323 321 324 328 329 330 326 325 328 326 323 325 325 322 323 320 315 316 318 314 312 310 308 306 305 304 302 302 300 299 298 297 295 294 293 293 293 294 294 294 295 294 294 293 293 294 294 293 293 292 292 292 292 292 292 291 291 291 290 290 290 290 290 289 289 288 288 288 288 288 288 287 287
327 328 323 317 320 318 315 320 322 320 318 322 325 322 323 329 329 327 328 329 329 329 328 327 325 323 322 324 322 318 318 320 316 313 311 308 306 305 304 303 301 300 299 298 297 296 294 293 293 293 293 294 294 294 294 294 293 293 293 293 293 293 292 292 292 292 292 292 291 291 291 291 290 290 289 289 289 288 288 288 288 288 288 287 287 287
326 328 326 317 317 318 316 319 324 322 318 320 321 319 322 328 327 326 327 327 329 329 330 330 326 325 323 322 324 323 319 318 316 313 311 308 306 305 304 303 301 300 300 298 298 296 294 293 293 293 293 293 293 294 293 293 293 292 293 293 293 292 292 292 292 292 292 291 291 291 291 290 290 290 289 289 289 288 288 288 287 287 287 287 286 286
324 326 327 319 315 318 319 320 323 322 319 320 321 320 321 321 322 326 325 325 329 329 330 330 326 329 328 321 319 322 319 316 314 313 311 307 306 305 304 303 301 300 300 299 298 296 294 293 293 293 293 293 293 293 293 292 292 292 292 292 292 292 292 292 291 291 291 291 291 290 290 290 289 289 289 288 288 288 288 287 287 287 287 286 286 286
324 327 329 323 317 319 323 321 318 319 319 319 319 320 321 320 322 326 325 324 325 326 330 330 326 329 330 322 318 318 317 314 312 313 311 308 306 306 304 303 301 301 300 299 298 297 294 293 293 292 292 292 292 292 292 292 291 291 291 291 291 291 291 291 291 291 291 290 290 290 289 289 289 289 288 288 288 287 287 287 287 287 286 286 286 286
326 329 330 326 320 319 320 319 317 318 318 318 320 322 321 320 321 325 326 326 324 324 326 327 327 326 321 319 320 319 319 316 311 311 312 309 307 306 304 303 302 301 300 299 298 296 294 293 293 292 292 292 291 291 291 291 291 291 291 291 291 291 291 291 291 290 290 290 290 289 289 289 289 288 288 288 287 287 287 287 286 286 286 286 286 285
325 327 327 326 321 318 319 319 318 318 317 318 321 322 321 319 320 323 327 327 326 325 323 323 326 323 316 316 320 319 319 318 313 310 311 310 308 306 305 304 302 301 301 300 299 296 294 293 292 291 291 291 290 291 291 291 291 290 290 290 290 290 290 290 290 290 290 290 289 289 289 288 288 288 288 287 287 287 287 286 286 286 286 286 286 286
324 327 328 329 327 324 323 322 319 318 317 319 321 319 318 319 319 321 324 324 323 324 324 324 325 324 319 317 317 318 318 316 313 311 310 310 310 308 306 304 302 302 301 300 299 297 294 293 292 291 291 290 290 290 290 291 290 290 290 290 290 290 290 290 290 290 289 289 289 288 288 288 288 288 288 287 287 287 286 286 286 286 286 286 286 286
325 327 326 327 329 328 328 326 322 319 317 318 320 319 318 319 320 320 322 322 323 323 323 323 323 324 323 319 316 317 317 314 313 312 311 310 310 308 306 305 303 302 301 300 299 297 295 293 292 292 291 290 290 290 290 290 290 290 290 290 290 290 290 289 289 289 289 289 288 288 288 288 288 288 288 287 287 287 286 286 286 286 286 286 286 286
326 326 323 325 327 327 327 327 323 320 319 319 319 319 319 319 319 320 321 322 323 323 323 322 322 323 324 322 319 319 318 316 315 314 312 311 309 308 307 305 303 302 301 300 298 297 296 294 293 292 291 291 290 289 290 290 290 289 289 289 289 289 289 289 289 289 289 288 288 288 288 288 288 288 287 287 287 286 286 286 286 286 286 286 286 286
324 324 322 324 325 324 325 327 323 320 320 320 319 319 318 318 319 320 321 321 323 324 324 322 322 323 323 323 323 322 319 317 316 315 313 311 308 307 306 305 304 303 301 300 299 297 296 295 294 292 291 291 290 289 289 289 289 289 289 289 289 289 289 289 289 289 288 288 288 288 288 288 288 288 287 287 287 286 286 286 286 286 286 286 286 286
323 323 322 322 323 322 324 326 323 320 320 320 319 319 318 318 318 319 320 320 321 323 323 323 324 324 321 320 322 322 318 316 315 312 312 311 309 307 306 305 304 303 301 300 299 297 297 296 294 292 291 291 290 289 289 289 289 289 289 289 289 289 289 289 288 288 288 288 288 288 288 288 288 288 287 287 286 286 286 286 286 286 286 286 286 286
319 322 322 321 321 322 322 323 322 320 320 319 318 318 317 317 317 318 319 319 320 321 321 323 325 323 321 321 320 317 315 313 313 312 312 313 310 307 307 306 304 303 302 300 299 298 297 296 294 293 292 291 290 289 289 288 288 288 288 289 289 288 288 288 288 288 288 287 287 288 288 287 287 287 287 287 286 286 286 286 286 286 285 285 285 285
315 321 322 320 321 322 321 321 321 321 321 320 320 319 317 316 316 317 318 318 319 319 318 320 322 320 321 324 321 317 315 314 315 314 313 313 311 308 307 306 304 303 302 300 300 299 298 297 295 293 292 291 290 290 289 289 288 288 288 288 288 288 288 288 288 288 287 287 287 287 287 287 287 287 287 287 286 286 286 286 286 286 285 285 285 285
315 319 320 320 322 322 321 321 321 320 320 320 320 320 318 316 315 315 317 317 318 319 319 319 320 319 319 321 319 317 316 315 315 315 311 309 309 308 307 306 305 304 303 301 300 299 298 297 295 294 293 292 291 291 290 289 288 288 288 288 288 288 288 288 288 287 287 287 287 287 287 286 286 286 286 287 286 286 286 286 286 286 285 285 286 285
316 318 319 320 322 322 321 322 321 319 320 321 321 321 319 316 315 315 315 316 316 317 319 319 318 319 320 318 317 317 318 316 315 313 310 308 308 308 308 307 306 305 303 302 301 300 299 297 296 295 294 293 292 292 291 290 289 288 288 288 288 288 288 288 288 287 287 287 287 286 286 286 286 286 286 287 287 286 286 286 286 286 286 286 285 285
315 317 317 318 321 322 320 319 319 320 322 322 320 321 321 318 317 316 315 315 315 315 316 317 318 321 322 319 318 319 318 316 314 310 308 308 308 308 308 307 306 305 304 302 302 300 299 297 296 296 295 294 293 292 291 290 290 289 288 288 288 288 288 287 287 287 287 287 286 286 286 286 285 285 286 286 286 286 286 286 286 286 286 286 285 285
315 315 316 317 319 320 317 317 321 322 322 319 316 317 320 317 316 317 317 316 315 314 315 315 316 320 322 319 316 317 316 315 313 310 309 308 307 309 310 307 305 304 303 303 303 301 298 297 297 296 296 295 294 293 292 291 290 289 288 288 288 287 288 287 287 287 287 286 286 286 285 285 285 285 285 286 286 286 286 286 286 286 286 286 285 285
315 314 315 316 317 317 316 319 323 321 318 315 311 310 314 317 316 317 317 317 315 314 315 314 314 317 320 317 314 313 313 313 311 310 311 310 309 310 310 307 304 304 305 304 303 301 299 298 298 297 297 296 295 293 292 291 290 289 288 288 288 287 287 287 287 287 287 286 286 286 285 285 285 285 285 285 285 285 286 286 286 286 286 285 285 285
315 314 314 316 317 316 317 319 320 319 319 317 312 310 313 318 317 316 318 319 316 313 314 314 314 316 319 317 313 310 312 314 313 312 312 309 307 307 308 307 306 305 303 301 300 300 299 299 299 298 297 297 295 294 293 292 290 290 289 288 288 287 287 287 287 287 287 286 286 286 285 285 285 285 284 284 284 285 286 286 286 286 286 286 285 285
313 314 314 316 317 316 318 319 318 320 321 318 316 313 311 312 315 315 318 321 319 315 314 314 314 315 317 315 311 311 315 316 314 316 317 312 307 308 310 307 302 300 300 299 298 299 299 299 299 299 298 297 296 295 294 292 291 290 289 288 288 287 287 287 287 287 286 286 286 286 285 285 285 285 284 284 285 285 286 286 287 286 286 286 286 286
310 311 312 315 317 316 317 319 319 321 320 316 316 313 307 307 314 316 317 320 320 315 312 312 312 314 315 312 310 312 315 314 314 318 319 313 307 306 308 305 298 295 297 299 299 299 299 299 299 298 297 296 296 295 294 292 291 290 289 288 288 287 287 287 287 287 286 286 286 286 285 285 285 284 284 285 285 286 286 286 287 286 286 286 286 286
309 311 311 314 317 316 316 318 319 319 318 315 314 310 304 304 311 317 319 319 314 308 308 312 313 314 313 310 308 312 315 316 318 316 309 304 301 299 300 300 296 294 295 298 299 299 299 299 298 297 296 296 296 295 293 292 291 290 289 288 288 287 287 287 287 287 287 286 286 286 286 285 285 284 284 285 286 286 285 286 286 286 286 285 285 285
309 310 311 314 315 315 316 318 318 317 316 314 311 307 304 304 310 316 318 316 310 305 305 311 317 316 310 307 307 311 311 308 308 305 299 298 300 297 293 292 293 293 295 296 297 298 298 297 297 297 296 296 296 294 293 292 291 290 289 289 287 287 288 288 287 287 287 286 286 286 286 285 285 285 285 285 285 285 285 285 285 286 286 285 284 284
310 310 311 312 314 314 315 316 317 317 315 310 306 303 302 307 314 316 311 307 308 308 305 308 314 312 307 305 307 308 303 297 296 298 297 298 300 297 292 290 290 292 293 294 295 296 296 296 296 296 296 295 295 295 294 292 291 290 289 288 288 289 289 288 288 287 287 286 286 286 285 285 285 285 285 285 284 284 284 284 284 284 284 284 283 283
310 311 311 312 313 314 315 314 316 317 312 306 304 302 304 312 318 314 304 300 303 308 309 310 311 308 305 305 304 301 297 294 294 296 296 296 297 296 292 290 290 290 291 292 293 294 295 295 294 295 295 295 295 295 294 292 291 290 289 289 290 291 289 288 288 287 287 286 286 286 286 285 285 285 284 284 284 283 283 283 282 282 282 282 282 281
312 311 312 312 312 313 315 314 314 314 308 305 307 307 309 314 313 307 305 303 301 302 307 310 308 305 304 304 300 296 295 295 295 295 295 295 296 295 292 289 288 288 289 291 292 292 293 294 293 293 294 294 294 294 293 293 292 290 290 291 292 291 289 288 288 287 287 287 286 286 286 286 285 285 284 284 283 283 282 282 281 281 280 280 280 280
312 311 312 312 311 311 313 312 309 307 303 302 304 305 306 307 303 301 306 307 302 301 305 307 306 304 302 300 297 295 295 295 295 295 295 296 295 294 292 289 287 288 289 290 290 291 292 292 292 292 292 292 292 293 292 293 292 291 291 292 292 290 289 289 288 287 287 287 287 286 286 285 285 285 284 284 283 283 282 282 281 280 280 279 279 279
306 306 309 312 311 308 307 306 304 303 301 300 300 300 301 300 298 299 304 305 302 301 302 304 304 303 301 299 298 296 295 295 294 294 294 295 294 292 290 288 287 288 289 289 289 290 290 291 291 291 291 290 291 291 292 292 292 292 292 293 292 291 290 289 289 288 288 288 287 286 286 285 285 284 284 283 283 283 282 282 281 281 280 279 278 278
303 303 307 311 312 311 309 305 303 302 301 300 299 298 297 297 297 298 302 303 302 300 299 300 301 300 299 300 300 298 296 295 295 295 293 293 293 292 290 287 286 288 289 289 290 290 290 290 290 290 290 290 291 291 291 291 292 292 292 292 292 291 291 290 289 289 289 288 287 286 286 285 285 284 283 283 282 282 281 281 281 280 279 279 278 277
305 305 307 308 308 307 304 300 297 297 297 297 298 298 297 297 297 297 298 299 298 297 296 297 297 298 298 299 299 298 296 295 295 296 294 292 293 292 289 286 286 288 289 289 290 290 290 290 291 290 291 291 292 291 291 291 292 292 291 291 291 291 291 290 290 289 289 288 287 286 286 285 285 284 283 283 282 281 281 281 280 280 280 280 280 279
304 305 307 307 305 302 298 294 294 297 298 296 297 298 298 298 297 295 294 294 295 296 296 295 295 296 297 297 297 299 298 295 295 296 295 294 294 293 289 286 287 289 289 289 290 291 291 291 291 291 292 292 292 291 291 292 292 291 291 291 291 290 289 289 289 288 288 287 287 286 286 285 284 284 283 282 282 281 281 281 280 280 280 280 280 279
303 305 305 305 305 304 300 297 297 302 304 300 298 299 299 297 295 294 293 294 295 294 295 295 294 294 294 292 293 298 300 297 294 294 296 295 293 290 287 286 287 288 289 289 290 290 290 291 291 291 291 291 290 290 290 291 291 290 290 290 290 289 288 288 288 287 287 286 286 286 285 285 284 283 283 282 281 280 280 279 279 278 278 278 278 277
303 305 303 304 306 306 302 298 298 303 305 301 298 299 298 296 295 295 294 294 294 292 293 295 295 294 293 291 289 293 299 298 292 292 296 295 289 288 288 288 288 288 288 288 289 289 289 289 289 289 290 290 289 289 289 289 289 289 289 288 288 288 287 287 287 286 286 286 286 286 285 285 284 283 282 281 280 279 278 278 277 277 276 276 276 276
Wind_Speed
3 3 2 4 6 7 8 9 10 8 6 5 4 3 4 4 5 5 4 4 4 3 6 8 8 9 9 8 9 9 8 8 9 7 7 8 8 8 8 8 8 7 7 12 15 14 14 13 14 16 17 18 18 18 20 20 20 21 21 22 22 21 24 26 28 28 28 28 28 29 29 30 30 29 29 29 28 27 26 25 24 25 25 25 26 27
3 4 7 9 9 8 8 10 9 7 6 6 5 5 5 4 6 5 2 3 0 1 6 5 6 10 8 8 8 7 8 10 12 11 10 11 10 8 9 9 8 6 7 10 13 14 14 14 15 16 17 19 19 19 20 19 20 21 22 24 23 22 24 26 26 25 26 26 27 29 31 31 31 30 30 31 30 29 29 28 28 29 28 29 29 29
2 5 9 10 8 6 7 7 7 8 8 8 5 3 5 5 4 5 3 3 1 1 4 5 5 9 9 8 8 8 11 11 13 14 12 12 12 9 10 9 8 8 7 8 9 13 15 15 16 17 17 19 20 20 19 19 19 21 22 23 22 22 23 24 24 24 26 28 28 30 32 32 32 33 33 33 33 32 33 32 32 31 30 30 30 29
4 6 10 10 7 6 7 7 6 6 5 6 5 3 4 4 2 3 4 4 2 1 2 5 6 8 8 8 9 9 8 6 8 10 8 9 11 10 11 10 10 11 10 8 8 11 15 17 17 18 18 19 20 19 18 19 20 20 21 21 22 21 22 23 24 26 28 30 31 32 33 33 35 36 35 36 35 34 35 34 32 31 30 29 29 28
8 7 6 8 8 8 7 7 7 6 4 4 5 5 4 4 5 6 3 2 3 4 2 3 6 8 6 8 10 5 1 2 4 7 6 6 8 9 9 9 10 11 11 11 9 11 15 18 18 19 20 20 21 20 19 19 20 20 21 21 22 22 22 23 25 28 30 32 34 36 36 36 36 35 35 36 35 34 34 34 32 30 29 28 28 28
10 7 2 6 7 8 8 7 7 7 5 5 4 7 8 7 7 6 2 3 4 5 3 1 2 7 4 5 8 3 1 5 4 6 8 7 7 8 9 9 9 9 10 11 11 13 16 19 20 20 21 21 21 20 19 19 19 20 21 21 22 23 23 25 27 29 30 33 37 39 39 36 35 32 30 33 33 33 34 33 32 30 28 28 28 27
5 7 5 6 7 7 8 7 6 7 5 4 5 7 8 8 7 6 1 1 1 5 3 3 2 7 6 5 8 4 6 9 6 6 8 6 7 9 9 9 9 9 9 9 11 14 16 19 21 21 22 23 22 21 20 20 19 21 22 22 23 24 26 28 30 31 32 35 36 36 36 35 36 34 30 31 33 34 33 32 31 30 28 27 27 26
4 8 9 8 7 7 7 6 6 7 7 4 5 4 6 7 7 6 3 2 4 3 4 2 3 5 9 7 7 7 8 10 9 9 9 7 8 8 8 9 10 10 10 10 10 11 15 19 21 21 22 23 23 22 22 22 22 23 24 25 26 28 30 31 32 32 34 36 35 34 35 34 35 37 34 33 34 33 33 32 31 29 28 26 26 25
3 8 9 10 8 6 6 5 6 9 6 6 4 5 6 5 4 3 4 1 1 2 4 2 2 3 9 5 1 3 7 10 11 13 12 11 10 9 9 9 9 9 10 10 10 11 14 18 20 21 23 23 23 23 24 24 25 26 28 29 30 32 32 30 29 30 32 34 35 35 36 35 35 37 36 34 34 33 32 32 30 28 27 25 24 23
1 6 7 9 7 6 5 1 4 8 6 4 3 6 6 4 4 5 4 3 3 2 4 5 4 3 8 4 3 2 5 9 12 12 11 12 11 10 9 8 8 8 8 8 10 12 15 17 20 22 24 24 23 24 24 26 27 29 31 31 31 31 28 26 25 27 30 33 34 35 37 38 37 36 35 34 34 32 31 31 29 27 26 25 24 22
1 1 2 3 4 5 5 3 2 3 6 6 6 6 7 6 5 4 2 4 2 4 6 10 11 7 6 3 4 4 5 7 8 7 6 9 11 11 10 9 9 8 8 8 9 13 16 18 21 23 24 24 24 24 25 27 29 30 31 30 29 27 25 24 24 26 29 32 34 35 37 39 38 37 36 35 34 32 31 31 29 27 25 24 23 21
3 1 1 1 2 4 6 4 3 3 4 6 5 5 4 4 4 4 4 4 1 6 6 10 12 11 8 6 3 5 6 5 7 7 7 10 12 12 10 10 10 9 9 9 8 11 15 18 20 23 24 25 25 25 26 28 29 30 30 30 29 26 25 25 26 28 31 32 33 34 36 38 38 37 37 36 35 32 31 30 29 27 25 23 22 21
3 3 3 1 1 4 6 4 3 5 3 5 5 6 3 1 3 3 2 0 4 6 3 6 7 7 9 8 7 10 10 8 7 7 8 11 12 11 11 11 10 9 9 10 9 9 12 15 19 22 24 26 26 27 28 29 30 30 30 30 29 27 26 27 28 30 32 33 33 34 35 36 36 35 35 34 33 31 30 29 28 26 25 24 22 21
3 5 1 2 3 3 8 7 3 2 2 5 7 6 5 3 1 3 4 2 4 5 4 3 5 4 6 5 11 15 12 8 6 6 8 11 13 13 12 11 10 10 10 9 9 9 10 15 19 22 24 26 27 29 29 30 31 31 31 30 30 29 28 29 31 32 33 33 33 34 34 35 34 34 33 32 31 30 29 28 26 25 24 23 22 20
5 6 4 8 4 6 11 10 6 6 5 6 5 6 5 5 4 4 4 4 4 4 4 1 3 4 3 3 7 9 7 5 4 4 5 7 9 10 9 9 10 10 9 8 9 9 12 17 20 22 25 26 28 30 31 31 31 32 32 31 31 31 30 31 32 33 34 33 33 33 34 34 33 32 32 30 30 29 28 27 26 25 23 22 21 19
7 7 6 7 3 9 13 7 6 8 3 3 3 4 3 6 5 3 3 4 3 2 3 2 4 5 4 5 6 2 4 4 3 1 6 6 7 9 9 10 10 10 9 9 9 9 13 18 21 23 25 27 29 31 31 32 33 33 33 32 32 32 32 33 34 34 34 34 33 33 34 33 32 32 31 31 29 28 27 26 25 24 22 21 19 17
4 5 4 1 2 6 9 5 5 5 4 2 3 4 4 4 5 2 3 1 2 3 4 4 5 5 3 7 5 1 2 4 1 2 6 6 8 10 10 10 10 10 10 10 10 10 14 19 22 24 26 28 30 32 32 33 33 34 34 34 34 34 34 34 35 35 35 35 34 33 34 33 32 31 31 31 30 28 26 25 24 23 21 19 17 16
5 3 3 2 2 4 2 3 2 0 4 6 4 6 2 2 1 2 1 3 2 4 5 4 7 5 2 6 3 2 3 6 5 5 6 6 8 10 10 10 11 11 11 10 11 12 16 20 22 25 27 29 31 32 33 33 33 34 34 35 36 36 36 36 36 36 35 35 35 34 34 33 32 31 30 30 29 28 27 25 23 22 20 18 16 15
4 3 3 1 2 3 2 3 1 4 2 5 4 5 4 1 1 2 2 2 2 4 5 3 5 6 7 6 2 4 9 10 8 6 7 9 11 11 10 10 11 11 10 10 11 11 14 20 23 26 28 29 30 31 32 33 33 33 34 35 36 36 36 37 36 36 35 35 35 35 34 33 32 31 30 29 29 27 26 25 23 22 20 18 16 15
3 3 3 1 1 1 1 2 4 2 0 2 1 2 2 2 3 4 3 3 3 3 4 3 3 5 7 7 8 11 13 13 11 9 10 12 13 11 10 11 11 11 11 11 11 10 13 20 24 26 28 29 31 31 32 32 33 34 34 34 35 35 35 36 36 36 35 35 35 34 33 32 32 31 30 29 28 27 25 24 23 21 19 18 17 15
2 3 3 2 2 1 2 3 8 10 7 3 3 4 3 1 2 1 2 2 4 2 3 4 6 7 4 5 10 14 14 14 13 13 12 12 12 12 11 12 12 12 12 12 12 11 13 19 23 25 27 28 30 30 31 32 33 34 35 35 36 36 36 36 36 36 36 35 35 35 34 33 32 31 29 29 27 26 25 24 22 21 19 19 17 15
3 3 3 2 1 3 5 5 6 8 7 6 6 7 7 5 4 2 4 3 4 3 4 3 8 10 4 4 7 10 11 11 13 14 12 11 12 13 11 12 13 13 13 13 12 11 14 19 23 25 27 28 29 30 30 31 33 34 35 35 36 36 37 37 37 37 36 36 35 35 35 34 32 31 30 29 28 26 25 23 22 21 20 19 17 15
4 3 3 3 3 5 5 4 1 2 3 3 3 4 5 6 7 6 6 4 3 4 3 3 5 9 2 1 3 5 6 7 9 12 11 10 12 12 11 11 12 12 11 11 11 11 15 20 23 25 27 28 29 29 30 31 33 35 36 36 37 37 37 37 37 37 37 36 36 35 35 34 33 31 30 29 28 26 25 23 22 21 20 19 18 16
3 3 3 1 1 2 4 4 4 4 3 2 3 5 7 8 8 6 5 3 3 5 4 2 6 7 3 3 3 3 4 3 6 10 10 8 8 9 10 11 11 11 10 10 10 11 14 19 21 23 26 28 29 30 31 32 33 35 36 37 37 38 38 38 38 38 37 37 37 36 36 34 33 32 30 29 28 26 25 24 23 21 20 19 17 16
5 4 4 2 1 2 3 2 3 2 2 4 5 6 8 8 7 3 1 2 4 8 8 6 10 8 3 4 4 4 5 3 2 7 8 7 7 8 9 10 10 10 10 11 11 10 13 16 19 23 25 27 29 30 32 33 34 36 37 38 38 38 38 38 38 38 38 38 38 37 36 35 34 32 31 30 28 26 25 24 23 22 20 19 17 16
6 5 6 6 7 8 8 5 4 4 4 3 3 7 10 12 13 9 3 4 9 7 9 10 12 6 3 5 5 5 4 4 2 4 6 7 8 8 9 9 10 10 11 13 13 12 13 14 17 22 24 26 28 31 33 34 35 35 36 37 39 39 39 39 39 40 40 40 39 38 37 36 35 33 32 30 28 27 26 25 24 22 21 19 17 16
3 4 10 14 13 14 13 6 5 8 7 7 9 12 14 15 16 11 6 9 9 3 6 13 12 8 7 4 5 6 4 4 4 4 6 7 7 8 9 10 10 11 11 13 13 12 12 13 17 22 25 27 29 31 33 35 35 36 37 37 39 40 40 40 40 41 41 40 40 39 38 37 35 34 32 30 29 28 27 25 24 23 21 19 17 16
4 3 11 16 16 17 15 5 8 12 12 14 15 15 16 15 15 14 14 15 8 4 11 11 8 12 14 7 8 9 6 6 7 8 9 8 8 8 8 9 10 10 10 11 12 12 14 15 15 20 25 27 29 31 33 34 35 36 37 38 39 40 41 41 41 41 41 41 40 40 39 38 36 34 32 31 29 28 27 26 24 23 21 19 18 16
4 6 9 12 14 18 14 6 8 12 10 11 15 17 18 17 18 20 21 19 11 10 17 8 11 18 16 8 10 10 9 11 11 9 7 6 7 7 8 9 11 11 11 12 13 13 15 14 14 18 24 26 28 31 32 32 34 35 36 37 39 41 41 41 41 41 40 40 40 40 39 38 36 35 33 32 31 29 28 27 25 23 21 20 18 16
3 3 4 8 12 17 16 7 7 10 8 8 12 15 17 19 23 23 22 22 17 18 20 9 8 17 12 8 12 10 9 9 6 4 4 6 8 8 9 10 11 11 12 14 15 15 15 14 14 18 22 24 28 30 31 32 34 36 36 38 39 40 41 41 41 41 40 40 40 39 39 39 38 36 35 33 32 31 29 28 26 24 22 20 18 17
3 1 2 5 6 14 14 8 6 8 8 8 9 11 15 18 19 19 20 19 15 19 21 11 9 15 7 6 6 3 3 4 5 6 7 7 8 10 10 10 10 10 11 13 14 15 14 13 13 17 21 25 29 31 32 33 34 34 36 37 40 40 40 41 41 40 40 40 39 39 39 39 39 38 37 35 33 32 31 29 27 25 24 22 19 18
5 2 2 5 5 12 11 10 10 8 6 8 12 17 18 14 12 15 16 14 15 19 19 12 13 14 5 5 2 2 5 6 7 8 7 6 7 9 10 9 9 10 11 12 13 13 12 12 13 18 24 28 31 32 34 33 32 33 36 39 39 39 39 41 40 40 40 40 39 39 40 40 40 39 38 36 35 34 32 30 29 27 25 23 21 19
5 4 2 5 7 11 7 8 9 7 5 8 15 19 18 12 11 13 14 15 18 17 14 12 14 11 4 5 4 3 5 7 8 7 6 6 7 8 9 10 10 11 12 12 12 12 13 14 17 23 28 30 32 34 35 35 35 37 39 37 36 36 38 40 40 40 39 39 39 40 40 40 40 40 40 38 37 35 34 32 31 29 27 25 23 21
5 6 5 4 5 7 4 7 6 6 9 9 6 7 12 16 18 17 16 18 18 15 12 12 10 4 6 8 8 8 9 7 7 7 7 7 8 8 9 10 11 12 11 10 10 10 12 15 19 24 27 29 32 33 33 34 36 36 34 33 32 34 37 38 39 38 37 38 39 40 39 40 41 41 41 40 38 37 36 35 33 30 28 26 24 23
8 8 5 3 3 3 3 6 4 7 10 5 3 1 6 14 19 20 20 20 16 14 15 16 12 6 7 8 7 8 9 7 4 5 5 6 9 10 10 10 10 10 8 8 8 9 10 15 18 21 24 27 29 30 31 33 34 32 31 32 34 35 36 37 36 35 36 38 39 39 40 41 41 41 41 41 40 39 38 37 35 32 31 29 26 25
10 8 4 3 3 1 3 6 7 5 3 2 3 1 2 4 9 13 15 17 16 15 16 19 17 9 6 6 4 4 6 5 2 3 5 7 8 8 9 9 9 9 9 8 9 11 14 19 22 23 25 26 28 30 32 34 34 33 32 34 35 36 36 35 34 35 37 38 38 39 41 42 42 42 42 42 41 41 40 39 37 35 33 30 28 26
9 8 4 4 4 4 4 6 3 5 6 3 1 3 3 5 8 10 9 10 12 13 14 15 13 8 6 6 4 3 3 2 0 3 5 6 6 6 5 6 7 7 7 8 11 14 18 21 23 24 24 25 28 32 34 34 34 34 33 34 35 36 35 35 36 38 39 38 39 41 42 43 43 42 42 42 42 42 42 41 39 37 35 32 31 30
5 7 8 7 5 4 5 5 2 4 8 5 4 5 4 4 6 9 6 5 6 8 12 13 11 9 8 5 4 4 4 1 4 6 4 2 3 4 4 4 4 6 9 11 12 13 15 18 20 21 23 24 28 32 33 34 35 34 33 33 34 34 34 35 39 40 39 39 40 41 42 42 43 43 42 43 44 44 44 42 41 39 37 35 33 32
2 2 5 6 4 4 6 6 5 6 6 4 5 7 5 3 5 7 3 5 5 3 6 8 9 9 8 7 5 6 4 3 7 6 4 3 2 4 5 4 5 6 9 11 12 12 13 15 16 18 20 23 27 30 31 32 34 33 32 32 33 33 34 38 41 40 39 40 40 40 41 42 42 42 43 44 45 45 45 43 42 40 38 36 35 33
3 1 3 6 6 6 7 7 4 4 4 4 6 6 4 3 6 8 2 6 4 1 1 4 7 7 8 8 7 7 6 6 6 5 3 2 3 4 5 6 6 8 9 9 10 10 12 13 14 16 19 22 24 25 27 30 31 32 31 31 31 33 37 40 40 38 38 39 38 39 41 42 42 42 43 45 46 45 44 43 42 40 39 38 37 35
3 2 3 7 8 8 9 7 2 2 4 5 6 5 3 1 4 5 5 5 4 4 3 5 8 7 8 9 7 5 5 4 4 4 3 4 6 4 5 8 9 9 10 9 9 9 10 12 12 14 16 18 19 21 24 28 29 30 29 28 30 35 39 40 37 37 38 38 37 39 41 41 41 42 43 45 44 43 43 42 41 40 40 39 38 36
3 2 2 6 7 5 6 5 2 3 4 4 3 2 2 2 3 5 4 1 4 6 4 4 6 6 7 8 6 5 4 2 4 5 4 5 6 5 6 8 10 9 9 9 9 10 10 10 10 10 12 13 15 18 22 26 28 28 27 27 32 37 38 36 35 36 36 36 37 38 39 39 40 41 42 43 42 41 41 40 40 39 39 38 38 36
6 5 4 5 5 2 2 4 3 3 4 7 7 2 1 3 4 4 3 1 1 4 4 4 5 6 7 7 5 5 6 4 4 5 5 5 5 6 6 7 8 9 9 10 10 10 10 10 10 10 11 12 14 17 20 24 26 25 25 28 34 36 34 32 33 33 33 34 35 36 36 38 39 40 40 41 40 40 39 39 38 37 36 36 36 35
5 5 4 4 4 3 4 5 3 2 6 9 8 4 4 5 4 5 6 3 1 3 3 3 4 5 6 8 7 6 6 5 4 5 5 4 5 5 6 6 8 9 10 10 10 11 11 11 11 11 11 12 15 17 20 23 24 24 26 29 32 30 29 29 29 29 30 32 33 34 35 36 37 38 39 39 38 37 37 37 36 36 35 35 35 35
3 4 4 3 3 3 3 3 2 1 4 6 3 1 4 4 3 5 7 5 3 4 4 4 4 4 6 8 8 6 5 5 6 5 5 5 5 5 5 6 8 10 10 10 11 12 12 12 13 13 13 14 15 17 19 21 23 24 26 27 26 25 26 26 26 27 28 30 31 32 33 34 34 35 37 37 37 37 37 37 36 36 35 35 35 36
1 2 3 2 2 2 1 1 0 1 3 4 1 1 2 3 3 4 5 4 4 5 4 4 5 6 7 8 8 6 5 6 6 5 5 6 5 5 5 6 8 10 12 12 12 13 12 12 13 14 14 15 16 17 19 20 22 23 23 22 21 22 23 23 24 26 27 28 30 31 31 32 32 34 35 36 37 37 38 38 38 38 37 37 37 37
2 1 2 2 3 3 2 2 2 2 4 4 1 1 1 1 1 3 5 5 5 5 5 5 6 7 7 7 8 7 6 7 7 6 5 5 6 6 5 6 9 12 13 13 14 14 13 14 15 15 15 16 16 17 18 20 21 20 19 17 17 18 19 21 22 24 25 26 28 29 30 31 32 33 34 35 35 36 37 38 38 38 38 38 38 38
2 3 3 2 3 3 1 2 2 1 1 2 1 1 3 3 2 3 3 4 5 5 4 4 5 7 6 6 7 8 7 7 7 7 6 5 5 6 6 7 11 13 12 12 13 14 14 15 15 16 16 16 16 17 18 18 19 19 19 17 15 15 16 18 20 22 23 24 26 27 28 30 32 33 34 35 36 37 38 39 39 40 41 42 42 42
4 4 3 3 3 2 1 2 1 3 3 4 5 5 5 5 4 4 4 5 6 6 5 4 3 4 6 6 6 8 8 7 6 7 7 6 5 5 7 9 12 13 12 12 13 14 15 15 16 16 16 15 15 16 17 16 16 18 19 18 17 15 14 16 18 19 21 22 23 25 27 28 30 32 33 34 35 37 38 39 40 41 43 43 42 41
5 4 3 4 4 3 3 6 7 4 2 6 9 8 7 5 6 6 5 5 6 6 7 6 4 4 4 5 6 7 7 6 6 6 6 5 5 6 8 9 10 11 11 12 12 13 14 15 14 15 16 15 14 15 16 16 16 18 19 19 19 17 16 16 17 18 20 21 23 24 26 28 30 31 32 33 34 35 36 36 37 38 39 39 38 37
4 6 6 6 5 4 6 10 9 4 3 7 9 9 8 6 7 8 7 7 7 6 7 8 7 5 3 3 5 7 7 6 6 7 6 5 6 8 8 9 9 10 11 12 12 12 14 14 13 14 16 16 15 14 15 16 16 17 18 19 19 18 18 17 17 19 20 22 23 25 26 28 29 30 31 32 33 33 34 34 34 35 36 35 35 34
Wind_Direction
123 125 177 197 210 206 200 203 209 210 201 213 231 232 211 214 268 266 255 255 158 159 241 226 232 247 246 244 232 215 199 207 220 216 202 192 185 182 178 177 166 154 155 152 150 154 153 150 146 141 141 139 133 134 135 131 130 130 129 127 125 127 130 130 128 127 125 123 122 119 115 110 107 109 109 106 107 107 107 107 106 105 104 104 102 100
126 178 218 220 214 200 201 211 218 224 230 244 248 256 260 234 254 268 257 279 76 184 261 266 265 265 256 249 239 198 188 210 211 208 208 198 192 185 176 171 156 143 147 148 150 155 156 152 147 144 146 145 140 139 141 138 137 136 136 135 135 138 138 136 136 135 131 131 132 125 119 114 110 110 111 109 108 109 109 108 107 106 105 104 102 100
199 228 232 226 215 201 219 226 216 221 227 236 237 231 257 254 265 297 319 327 15 179 264 306 298 272 264 256 244 203 198 214 210 207 208 196 190 183 175 167 153 149 153 156 157 158 159 156 150 150 151 148 143 142 144 145 144 142 140 141 143 146 145 143 145 144 137 133 133 129 123 120 115 111 112 111 111 111 110 108 107 106 105 103 101 99
211 244 233 219 205 200 234 251 225 220 225 222 210 193 238 255 253 282 302 303 300 211 261 313 308 275 270 265 250 226 208 212 214 216 215 195 188 182 176 169 158 160 163 164 164 162 162 158 154 153 151 148 146 145 148 149 151 148 146 148 150 151 148 146 144 142 138 132 129 127 124 122 118 113 114 113 111 112 110 108 107 106 104 102 99 96
217 232 215 191 197 202 218 245 223 211 244 238 201 190 217 238 219 229 272 317 337 339 323 339 317 280 262 255 256 263 210 205 204 202 205 197 186 173 166 168 166 166 166 164 167 168 166 162 159 155 153 152 149 149 151 154 156 153 152 153 154 153 150 147 144 141 139 134 130 127 122 120 117 115 115 114 110 111 110 108 107 105 103 101 97 95
232 232 177 156 195 208 208 226 212 191 223 268 232 205 210 218 223 235 287 24 3 323 303 79 316 281 276 256 261 295 178 220 214 196 202 192 175 170 168 171 171 168 168 165 167 171 169 165 161 158 158 157 151 151 153 156 158 156 155 156 155 153 150 148 146 145 144 141 136 132 128 125 121 116 114 113 112 112 110 109 108 106 104 101 98 96
219 204 197 180 190 203 209 227 221 180 176 252 247 206 206 215 228 236 234 54 261 269 281 101 148 274 289 263 248 232 210 226 226 214 213 194 180 182 176 174 171 168 168 167 167 172 171 166 161 161 163 160 152 150 151 154 156 156 155 155 154 152 149 149 147 147 148 143 139 136 132 130 126 120 115 115 115 114 113 112 110 108 104 101 98 96
166 175 196 195 188 194 201 221 220 169 150 234 246 172 175 202 218 215 169 173 224 258 322 37 121 275 281 262 236 206 210 239 238 227 224 206 197 192 181 177 174 171 168 166 170 174 173 168 164 162 162 159 153 149 150 151 151 151 151 151 150 147 146 146 145 147 149 145 141 138 133 128 125 122 120 120 118 117 117 114 111 109 106 102 99 97
152 170 185 184 186 198 200 216 196 156 154 239 225 130 129 158 166 137 119 149 299 353 311 276 127 267 272 266 267 171 212 247 245 230 223 209 201 194 186 181 173 170 167 166 169 171 172 169 164 161 159 156 154 152 152 151 149 148 146 146 145 144 144 145 147 149 151 149 144 140 133 127 124 124 124 123 121 121 119 115 113 111 108 105 102 99
171 188 181 167 181 200 195 212 167 161 187 215 137 89 67 70 73 72 94 93 22 325 237 211 171 236 268 239 121 120 228 242 245 236 222 205 201 194 185 178 168 164 163 162 163 166 170 167 162 159 156 155 155 156 156 154 153 150 148 148 148 149 152 153 156 158 157 153 146 142 137 131 129 128 127 126 124 123 121 118 116 114 111 108 105 102
300 249 183 154 177 178 144 92 68 170 176 136 90 62 42 25 32 40 57 83 32 272 216 197 188 196 267 267 168 196 222 222 233 242 220 193 194 193 185 177 168 161 162 159 157 161 163 161 159 157 155 156 157 157 158 158 159 157 156 156 155 158 163 163 165 167 163 156 149 145 141 138 136 135 133 131 128 127 125 121 120 118 115 112 108 106
343 339 239 218 160 121 98 79 13 15 113 108 88 85 66 351 13 18 4 57 230 253 210 198 192 188 232 262 223 228 245 232 220 223 211 192 192 192 185 178 170 163 162 160 156 156 155 154 156 157 156 158 160 160 160 161 163 163 162 162 160 161 166 167 168 170 166 158 151 148 145 142 142 141 139 136 133 132 129 126 125 123 119 116 114 111
304 238 218 317 284 135 114 97 12 358 36 94 108 112 122 283 3 358 312 152 227 259 248 197 183 197 236 254 255 254 258 250 233 225 207 189 188 187 181 177 171 165 164 162 160 158 158 159 161 161 159 161 163 163 163 164 166 167 167 167 165 164 168 169 169 169 166 158 153 151 149 147 146 144 142 138 137 136 133 130 129 126 124 123 121 118
272 294 239 168 284 191 159 162 183 240 176 149 143 142 157 171 183 251 247 257 253 269 283 192 164 223 271 265 248 251 256 256 254 243 207 184 184 183 176 171 165 167 167 163 162 162 166 169 168 167 164 165 166 167 166 167 168 169 169 171 168 165 167 168 167 166 163 158 155 154 152 151 149 146 144 142 140 138 135 133 131 129 128 126 124 121
212 283 206 181 212 189 186 192 170 141 159 180 154 139 160 161 176 215 207 224 252 276 290 249 164 198 214 242 242 247 267 289 297 247 188 171 173 163 155 157 162 170 169 164 165 168 173 173 172 170 169 169 170 170 169 169 170 170 170 172 168 164 165 166 165 163 161 158 158 157 155 153 152 150 148 145 143 140 138 136 134 132 130 127 124 120
199 259 224 192 170 170 189 196 126 113 150 223 120 115 183 182 181 226 207 183 192 294 280 224 219 216 210 259 263 264 294 311 352 112 142 142 145 140 149 163 168 172 169 168 170 171 175 174 174 174 172 174 173 172 173 172 172 172 170 170 168 164 165 165 164 163 162 161 160 160 158 157 156 154 152 148 145 143 142 140 136 134 131 127 123 120
184 275 267 147 72 180 192 178 144 159 179 172 144 176 198 169 164 221 280 43 84 274 259 197 244 288 303 272 260 106 297 292 343 151 157 155 150 153 168 172 172 176 173 174 174 173 175 175 176 177 176 177 176 176 176 174 174 174 171 169 166 164 165 166 165 165 164 163 163 163 162 161 161 160 156 151 149 147 145 142 138 134 131 127 125 124
170 252 280 133 177 247 223 113 96 273 142 131 185 199 139 61 95 139 261 344 42 261 266 203 231 257 239 260 282 89 244 253 240 202 170 162 167 173 181 178 179 178 172 173 173 175 178 177 178 179 180 181 179 178 177 176 176 175 173 171 168 167 167 167 167 167 166 166 166 165 165 165 165 163 159 154 152 151 148 144 140 136 133 131 131 132
168 213 282 105 181 277 15 110 86 348 93 131 194 195 126 124 212 135 179 234 197 251 283 254 238 230 204 219 218 189 220 228 226 205 184 186 186 186 185 180 180 174 170 175 177 179 180 179 179 178 180 182 181 180 178 177 177 176 175 174 171 170 169 169 169 168 169 169 168 168 169 169 168 165 161 158 156 154 151 146 143 139 137 136 138 140
170 204 263 335 217 255 33 143 175 210 283 55 80 184 131 138 173 168 178 177 169 234 279 299 285 240 216 200 182 197 214 211 203 197 200 200 193 189 184 179 180 179 180 183 182 184 181 180 180 179 180 181 180 180 178 177 178 176 175 174 172 171 170 170 171 170 170 171 171 171 171 171 170 166 163 161 159 157 153 149 146 143 142 142 144 146
158 218 233 293 328 183 185 202 187 184 182 159 155 179 188 128 111 184 218 150 143 189 235 269 279 262 233 191 189 200 210 205 195 195 204 204 194 191 186 180 182 183 186 186 182 182 179 177 178 178 180 180 179 179 178 178 178 177 176 175 174 173 172 172 173 172 173 173 174 174 173 172 170 167 166 163 161 159 154 150 148 147 146 147 149 150
187 205 173 176 232 205 222 245 212 190 182 177 183 190 188 171 139 188 251 205 156 198 195 200 268 267 235 183 205 208 210 205 196 196 202 199 193 193 189 184 185 184 187 187 181 178 176 175 175 176 177 178 178 179 178 178 178 177 176 176 176 175 175 175 175 175 175 175 176 176 174 172 170 169 167 165 163 160 155 153 152 151 151 152 152 151
148 126 153 186 208 209 243 280 264 169 147 138 179 191 184 187 176 186 228 217 171 232 212 138 273 276 262 170 243 239 233 222 202 197 200 199 194 191 187 184 185 187 186 182 177 178 178 176 174 173 175 178 179 180 179 178 178 178 178 178 178 178 178 178 178 178 178 178 178 177 175 173 172 171 169 168 166 162 158 157 156 155 156 155 154 153
103 137 182 219 322 344 321 330 9 37 78 128 216 188 183 207 202 191 210 186 175 225 200 161 257 268 317 332 303 301 290 254 203 198 197 195 189 184 184 183 183 184 179 176 177 176 175 173 172 174 177 179 181 181 181 180 180 180 180 180 180 180 180 180 180 180 180 179 179 177 176 175 174 174 173 171 168 165 162 161 159 159 160 159 156 155
177 179 156 154 260 322 335 327 340 350 172 207 227 192 192 207 204 220 254 140 235 223 176 191 246 247 291 322 333 348 344 345 223 206 194 186 183 184 185 181 180 178 173 176 176 170 173 175 177 181 182 182 182 182 182 182 182 182 182 182 182 181 182 182 182 182 182 181 180 178 178 178 177 177 176 173 171 168 166 165 163 163 164 163 160 158
179 174 159 179 215 230 231 219 204 190 180 211 208 181 196 201 196 208 213 208 239 220 169 208 243 249 318 326 324 332 339 332 280 203 191 194 189 182 179 177 177 176 178 181 178 177 180 182 184 186 185 184 184 183 184 185 185 185 184 184 184 183 183 184 184 184 183 183 181 180 181 181 180 180 179 176 173 172 170 169 168 167 168 167 164 161
152 183 191 195 206 221 231 229 153 141 153 202 203 190 200 205 198 198 209 221 224 182 204 226 235 256 275 277 272 267 242 248 254 198 199 209 194 182 180 179 179 180 182 181 180 181 182 184 189 189 187 187 187 186 187 187 187 186 186 186 186 186 185 185 186 186 185 184 184 183 183 183 183 183 181 179 177 176 174 173 172 172 171 170 168 165
111 199 210 207 216 228 232 218 152 158 178 198 199 198 203 204 197 196 214 222 188 162 242 227 192 240 248 214 224 239 216 226 235 214 214 209 191 182 173 171 177 180 180 179 183 186 187 191 192 189 189 189 188 189 190 190 190 189 188 187 187 188 188 187 187 187 187 186 186 186 186 186 187 186 184 182 180 179 178 177 177 176 174 172 171 169
135 210 217 209 228 240 238 209 167 180 195 196 197 203 201 198 199 202 216 221 188 203 242 208 168 228 239 204 214 220 200 212 217 208 201 176 170 169 161 170 180 180 179 183 189 192 194 197 194 190 191 189 189 191 191 192 192 191 190 189 189 190 190 188 188 188 188 188 188 188 189 188 189 188 186 185 184 183 183 182 181 180 179 177 175 172
171 211 202 192 224 244 241 221 182 187 203 208 207 209 204 201 203 203 215 220 207 223 239 213 202 242 238 200 218 216 201 208 191 157 155 151 163 168 170 182 185 182 185 187 192 196 198 200 195 192 191 190 192 193 192 193 194 192 191 191 191 192 191 189 189 190 190 190 190 191 190 190 190 190 189 188 187 187 187 186 185 185 184 182 180 178
199 188 115 146 212 248 242 222 197 192 203 218 224 221 216 212 207 207 219 219 212 232 240 230 251 259 228 173 218 217 159 147 128 162 182 173 172 170 176 187 185 186 194 195 198 199 197 196 191 190 194 196 198 196 195 196 196 194 193 193 193 193 191 191 191 191 192 193 193 193 192 192 192 192 192 191 191 192 191 190 190 189 188 187 185 184
186 192 74 126 203 248 235 205 209 213 213 235 245 236 223 210 202 211 220 214 206 226 236 232 247 252 208 127 108 99 138 157 174 191 187 173 171 167 176 187 187 192 199 201 204 199 194 193 190 193 198 200 200 199 199 198 195 195 197 197 196 194 192 192 192 193 195 195 194 195 194 193 193 193 194 194 194 196 195 194 194 193 193 192 190 190
165 176 169 157 213 252 234 182 193 209 218 240 247 238 220 199 199 215 223 220 213 215 221 223 233 237 182 148 168 166 176 188 196 195 172 160 167 173 183 186 190 202 204 202 203 197 195 197 196 199 201 201 202 203 202 198 196 199 201 198 196 194 192 193 195 196 197 196 196 196 195 195 194 195 197 197 198 199 198 198 199 197 198 197 195 195
165 185 201 176 211 250 215 135 141 195 218 231 249 233 202 194 201 212 222 223 216 214 224 236 240 205 157 178 189 186 193 198 196 192 178 165 166 181 196 196 199 207 205 200 199 198 200 201 202 205 206 205 206 205 204 202 201 202 201 197 196 195 194 196 197 197 197 197 198 198 196 196 197 197 199 199 200 201 201 202 203 201 202 202 200 200
178 194 201 176 203 240 140 125 157 214 223 242 336 317 198 196 200 211 226 229 219 217 231 243 246 210 179 196 195 184 196 203 185 176 180 180 174 177 193 205 207 204 195 191 196 200 204 203 204 208 209 208 208 205 203 203 203 201 198 196 196 197 197 199 199 199 200 200 200 199 197 198 199 198 200 201 202 203 204 205 205 205 206 206 205 206
180 192 189 174 188 148 139 181 207 239 266 342 358 298 202 166 179 204 234 239 225 215 223 234 236 220 190 199 190 174 194 192 148 166 194 202 192 181 189 197 193 188 184 185 192 200 204 205 207 209 208 207 205 202 202 203 201 198 197 197 197 198 199 200 200 201 203 202 201 200 200 201 200 200 202 203 204 205 206 207 207 208 209 209 209 211
177 180 180 201 198 173 194 212 232 314 301 271 190 205 182 152 167 186 217 244 232 213 215 229 229 204 183 190 164 132 151 128 356 244 213 197 187 176 176 167 161 173 184 189 201 210 211 212 212 211 208 204 202 202 203 202 199 197 196 196 197 199 200 200 202 204 205 203 203 203 203 202 202 202 203 204 205 207 208 209 210 210 211 210 211 213
186 186 186 201 204 184 205 225 236 276 263 231 207 233 226 187 177 172 185 256 258 218 211 217 209 187 179 174 129 100 83 43 266 259 267 247 173 128 95 88 128 173 189 192 197 204 209 211 212 211 207 202 202 205 204 200 197 195 195 196 198 198 198 201 205 207 205 205 206 205 205 205 205 205 205 206 208 210 210 211 212 213 213 213 215 218
167 192 185 194 204 185 198 220 218 225 238 218 219 248 261 214 154 123 125 271 272 230 211 204 190 181 174 163 147 129 125 203 239 252 285 281 203 120 102 96 117 151 169 178 181 185 194 199 202 203 202 200 203 205 202 198 195 193 194 197 197 197 199 205 209 208 207 208 208 207 207 208 208 208 207 209 213 214 213 214 214 215 216 216 218 221
152 156 184 202 213 198 201 222 228 226 244 228 216 237 264 224 138 114 142 259 243 182 194 156 157 171 169 161 157 154 168 205 225 235 243 201 130 102 115 125 125 128 135 148 164 176 184 186 187 189 193 199 204 202 198 196 193 193 196 198 196 198 205 210 211 210 210 211 210 210 211 211 210 210 212 215 217 217 216 216 216 216 217 218 219 221
178 186 191 208 216 209 209 223 246 254 243 222 208 222 235 187 132 149 203 230 182 180 193 143 151 168 164 160 166 177 194 198 169 165 166 130 111 90 94 109 114 118 125 136 151 162 168 174 180 186 193 200 203 199 196 195 192 194 198 197 198 205 212 213 213 212 213 212 212 213 214 214 214 215 217 219 220 220 219 218 219 219 219 220 220 221
173 164 191 209 212 211 211 214 235 258 230 168 158 227 217 155 176 200 210 189 159 178 178 141 152 163 158 162 170 168 167 150 119 120 116 115 119 114 107 110 112 117 128 139 147 155 160 163 172 185 194 200 201 199 198 195 193 196 197 197 206 215 217 216 215 215 214 213 213 215 216 217 218 219 220 221 222 221 221 221 220 221 221 221 221 221
166 160 187 201 189 164 181 192 205 242 195 143 128 125 203 192 198 187 152 79 168 173 154 141 157 164 158 156 152 141 140 129 106 111 117 120 124 129 135 137 134 136 142 145 150 160 164 162 170 184 191 195 198 200 199 196 195 196 196 205 217 221 219 217 217 216 215 214 216 218 219 220 221 221 221 222 223 223 223 223 222 222 222 222 221 222
180 173 189 198 180 161 180 198 212 218 181 162 147 157 195 197 189 161 142 136 210 185 158 159 174 172 156 146 141 140 139 133 129 131 130 133 140 143 143 143 143 146 150 153 158 166 169 168 171 178 184 190 195 198 199 199 198 196 202 215 224 223 218 218 218 216 216 217 219 221 223 223 223 223 223 224 224 224 224 224 224 223 223 223 223 223
199 174 169 176 168 152 169 205 269 352 165 162 138 182 181 160 154 155 138 131 185 199 175 169 174 162 142 136 137 141 151 158 161 159 152 154 163 163 155 156 158 157 160 162 162 168 176 176 173 174 179 186 192 196 199 202 201 201 210 222 226 222 219 219 217 217 219 221 222 223 224 224 225 225 226 226 225 225 224 224 224 224 224 223 223 223
225 161 128 114 142 132 95 141 120 99 165 158 64 343 165 134 142 157 140 140 186 192 171 163 161 152 147 145 142 148 164 163 159 166 167 162 167 170 160 160 165 165 166 166 165 170 177 176 174 177 179 184 193 197 200 203 205 209 217 224 224 222 222 220 218 220 222 223 224 225 224 225 225 226 226 227 227 227 228 227 226 225 224 223 223 224
271 191 98 101 175 177 154 165 173 186 188 174 96 33 156 138 126 157 164 177 178 165 161 163 151 145 151 155 151 154 161 158 155 165 170 159 164 176 168 162 170 174 175 173 170 172 174 173 175 181 183 188 195 199 201 205 209 215 221 225 224 224 223 221 221 223 224 224 224 224 224 225 225 225 225 226 226 226 227 228 227 226 224 223 223 223
208 159 138 156 178 162 172 227 243 339 262 197 168 171 188 181 113 89 122 147 135 123 130 143 140 143 153 160 152 147 154 165 163 160 168 172 172 175 173 171 175 178 178 176 175 176 179 182 185 188 194 198 200 200 202 206 210 214 219 222 223 222 221 221 222 223 224 225 224 224 225 225 226 226 225 225 225 225 226 227 226 226 228 229 228 226
129 147 169 152 131 102 315 253 159 49 354 284 261 245 222 190 147 109 97 110 118 118 113 103 110 141 154 160 150 139 150 177 179 163 165 173 172 177 185 184 183 182 180 181 183 186 192 197 198 200 205 210 210 208 209 210 213 215 218 222 224 223 221 220 220 222 224 225 225 226 227 226 227 228 227 227 227 227 228 229 230 230 232 234 233 233
127 157 170 133 148 197 206 182 167 146 187 232 232 227 218 186 148 136 132 131 139 145 136 115 86 79 116 145 149 143 153 179 184 164 161 172 183 191 194 190 188 190 190 188 190 197 204 210 211 213 218 221 221 219 220 220 220 220 221 223 225 225 225 222 220 220 223 224 226 228 228 228 229 230 230 229 230 229 230 231 233 235 236 237 237 238
161 179 173 158 184 211 180 172 176 161 167 203 210 207 201 175 153 162 172 166 165 166 151 135 122 110 116 151 160 155 159 173 174 160 159 186 202 199 198 199 200 199 197 195 194 201 210 216 219 224 231 233 232 232 233 233 232 230 229 228 228 228 229 228 225 223 225 226 229 230 231 231 231 231 231 232 232 232 232 233 235 237 239 241 242 242